Location: Dyersburg
(36.0438°N, 89.3789°W)
Time: 18:07:06
(UTC+00:00)

Transit 4A - Visible Passes

Search period start: 28 February 2020 00:00
Search period end: 09 March 2020 00:00
Orbit: 872 x 973 km, 66.8° (Epoch: 27 February)

Date Brightness Start Highest point End Pass type
(mag) Time Alt. Az. Time Alt. Az. Time Alt. Az.
01 Mar 10.3 11:44:02 10° NNE 11:47:18 15° NE 11:50:32 10° E visible
02 Mar 10.2 11:52:31 10° N 11:56:57 22° NE 12:01:26 10° E visible
05 Mar 10.6 10:36:03 10° NNE 10:38:01 12° NE 10:40:00 10° ENE visible
06 Mar 10.4 10:44:00 10° N 10:47:46 17° NE 10:51:32 10° E visible
07 Mar 9.7 01:47:21 10° S 01:48:08 14° SSE 01:48:08 14° SSE visible
07 Mar 10.0 10:52:39 10° N 10:57:23 25° NE 11:02:12 10° ESE visible
08 Mar 8.5 01:56:04 10° S 01:59:42 36° SSE 01:59:42 36° SSE visible
08 Mar 9.4 11:01:32 10° N 11:06:56 36° NE 11:12:24 10° ESE visible
